Poplar Bluff, MO

4:58 AM CST on December 10, 2019 (GMT -0600)
Poplar Bluff Municipal

Weather History for KPOF - October, 2019

Change the Weather History Date:

Monday, October 14, 2019

  Actual Average Record
Temperature  
Mean Temperature 57 °F -  
Max Temperature 75 °F 72 °F 91 °F (1897)
Min Temperature 39 °F 47 °F 28 °F (1917)
Degree Days  
Heating Degree Days 8    
Growing Degree Days 7 (Base 50)    
Moisture  
Dew Point 43 °F    
Average Humidity 71    
Maximum Humidity 97    
Minimum Humidity 29    
Precipitation  
Precipitation 0.00 in - - ()
Sea Level Pressure  
Sea Level Pressure 30.06 in    
Wind  
Wind Speed 1 mph ()    
Max Wind Speed 9 mph    
Max Gust Speed -    
Visibility 10.0 miles    
Events      
T = Trace of Precipitation, MM = Missing Value Source: Averaged Metar Reports

Daily Weather History Graph

Daily Weather History Graph

Search for Another Location

Airport or City:

Astronomy

Oct. 14, 2019 Rise Set
Actual Time 7:07 AM CDT 6:26 PM CDT
Civil Twilight 6:41 AM CDT 6:52 PM CDT
Nautical Twilight 6:11 AM CDT 7:22 PM CDT
Astronomical Twilight 5:41 AM CDT 7:52 PM CDT
Moon 7:16 PM CDT (10/14) 7:40 AM CDT (10/14)
Length of Visible Light 12h 10m
Length of Day
11h 18m
Full, 99% of the Moon is Illuminated
Oct 14
Full
Oct 21
Last Quarter
Oct 27
New
Nov 4
First Quarter
Nov 12
Full

Hourly Weather History & Observations

Time (CDT) Temp. Dew Point Humidity Pressure Visibility Wind Dir Wind Speed Gust Speed Precip Events Conditions
12:53 AM 44.1 °F 41.0 °F 89% 30.05 in 10.0 mi Calm Calm - N/A   Clear
1:53 AM 42.1 °F 39.9 °F 92% 30.04 in 10.0 mi Calm Calm - N/A   Clear
2:53 AM 42.1 °F 39.0 °F 89% 30.05 in 10.0 mi Calm Calm - N/A   Clear
3:53 AM 39.9 °F 39.0 °F 97% 30.06 in 10.0 mi Calm Calm - N/A   Clear
4:53 AM 39.9 °F 37.9 °F 93% 30.08 in 10.0 mi Calm Calm - N/A   Clear
5:53 AM 39.9 °F 37.9 °F 93% 30.08 in 10.0 mi Calm Calm - N/A   Clear
6:53 AM 39.0 °F 37.0 °F 93% 30.11 in 10.0 mi Calm Calm - N/A   Clear
7:53 AM 42.1 °F 39.0 °F 89% 30.12 in 10.0 mi North - - N/A   Clear
8:53 AM 48.9 °F 43.0 °F 80% 30.13 in 10.0 mi Calm Calm - N/A   Clear
9:53 AM 55.0 °F 45.0 °F 69% 30.12 in 10.0 mi North - - N/A   Clear
11:53 AM 66.9 °F 43.0 °F 42% 30.12 in 10.0 mi Variable 3.5 mph - N/A   Clear
1:53 PM 73.9 °F 42.1 °F 32% 30.06 in 10.0 mi Variable 3.5 mph - N/A   Clear
2:53 PM 73.9 °F 39.9 °F 29% 30.04 in 10.0 mi South 4.6 mph - N/A   Clear
3:53 PM 75.0 °F 41.0 °F 29% 30.04 in 10.0 mi SSE 9.2 mph - N/A   Clear
4:53 PM 73.0 °F 42.1 °F 33% 30.04 in 10.0 mi South 6.9 mph - N/A   Clear
5:53 PM 68.0 °F 45.0 °F 43% 30.03 in 10.0 mi South 5.8 mph - N/A   Clear
6:53 PM 62.1 °F 46.0 °F 56% 30.04 in 10.0 mi South 4.6 mph - N/A   Clear
7:53 PM 57.9 °F 48.0 °F 70% 30.04 in 10.0 mi SSE 3.5 mph - N/A   Clear
8:53 PM 55.0 °F 48.9 °F 80% 30.04 in 10.0 mi Calm Calm - N/A   Clear
9:53 PM 51.1 °F 48.0 °F 89% 30.05 in 10.0 mi Calm Calm - N/A   Clear
10:53 PM 50.0 °F 46.9 °F 89% 30.05 in 10.0 mi Calm Calm - N/A   Clear
11:53 PM 48.9 °F 46.0 °F 90% 30.04 in 10.0 mi Calm Calm - N/A   Clear